Location: Amboy Crater
(34.5568°N, 115.7811°W)
Time: 22:00:14
(UTC-07:00)

Hubble Space Telescope - Pass Details

Date: 11 August 2024
Orbit: 506 x 509 km, 28.5° (Epoch: 15 September)

Event Time Altitude Azimuth Distance (km) Brightness Sun altitude
Exits shadow 04:35:48 12° 173° (S) 1,609 2.9 -16.7°
Maximum altitude 04:36:46 13° 158° (SSE) 1,561 3.0 -16.5°
Drops below altitude 10° 04:38:29 10° 132° (SE) 1,716 3.5 -16.2°
Sets 04:41:50 0° 103° (ESE) 2,605 5.0 -15.7°
